Location: Lewisville
(33.0462°N, 96.9942°W)
Time: 02:31:58
(UTC-05:00)

Hubble Space Telescope - Pass Details

Date: 12 August 2020
Orbit: 536 x 540 km, 28.5° (Epoch: 21 October)

Event Time Altitude Azimuth Distance (km) Brightness Sun altitude
Exits shadow 05:13:49 33° 184° (S) 899 1.6 -18.9°
Maximum altitude 05:14:16 35° 169° (S) 880 1.6 -18.8°
Drops below altitude 10° 05:18:02 10° 103° (ESE) 1,783 4.0 -18.1°
Sets 05:20:26 0° 95° (E) 2,675 5.2 -17.7°
